Time,TemperatureF,DewpointF,PressureIn,WindDirection,WindDirectionDegrees,WindSpeedMPH,WindSpeedGustMPH,Humidity,HourlyPrecipIn,Conditions,Clouds,dailyrainin,SoftwareType,DateUTC
2013-06-05 00:04:00,55.4,50.6,29.96,West,264,3.5,3.5,84,0.00,CLR,,0.00,WeatherDisplay:10.37,2013-06-05 07:04:00,
2013-06-05 00:09:00,55.5,50.7,29.96,West,271,3.5,3.5,84,0.00,CLR,,0.00,WeatherDisplay:10.37,2013-06-05 07:09:00,
2013-06-05 00:14:00,55.5,50.7,29.96,WNW,301,4.6,4.6,84,0.00,CLR,,0.00,WeatherDisplay:10.37,2013-06-05 07:14:00,
2013-06-05 00:19:00,55.5,50.7,29.96,WNW,285,4.6,4.6,84,0.00,CLR,,0.00,WeatherDisplay:10.37,2013-06-05 07:19:00,
2013-06-05 00:24:00,55.5,50.7,29.96,West,273,2.3,2.3,84,0.00,CLR,,0.00,WeatherDisplay:10.37,2013-06-05 07:24:00,
2013-06-05 00:29:00,55.4,50.6,29.96,WSW,240,3.5,3.5,84,0.00,CLR,,0.00,WeatherDisplay:10.37,2013-06-05 07:29:00,
2013-06-05 00:34:00,55.4,50.6,29.96,WNW,284,2.3,2.3,84,0.00,CLR,,0.00,WeatherDisplay:10.37,2013-06-05 07:34:00,
2013-06-05 00:39:00,55.4,50.6,29.96,WNW,292,4.6,4.6,84,0.00,CLR,,0.00,WeatherDisplay:10.37,2013-06-05 07:39:00,
2013-06-05 00:44:00,55.3,50.9,29.96,WNW,294,2.3,2.3,85,0.00,CLR,,0.00,WeatherDisplay:10.37,2013-06-05 07:44:00,
2013-06-05 00:49:00,55.2,50.4,29.96,NNW,331,8.1,8.1,84,0.00,CLR,,0.00,WeatherDisplay:10.37,2013-06-05 07:49:00,
2013-06-05 00:54:00,55.3,50.5,29.96,West,279,3.5,3.5,84,0.00,CLR,,0.00,WeatherDisplay:10.37,2013-06-05 07:54:00,
2013-06-05 00:59:00,55.3,50.5,29.96,WNW,294,3.0,3.0,84,0.00,CLR,,0.00,WeatherDisplay:10.37,2013-06-05 07:59:00,
2013-06-05 01:04:00,55.3,50.5,29.96,WSW,243,3.5,3.5,84,0.00,CLR,,0.00,WeatherDisplay:10.37,2013-06-05 08:04:00,
2013-06-05 01:09:00,55.3,50.5,29.96,WNW,300,3.5,3.5,84,0.00,CLR,,0.00,WeatherDisplay:10.37,2013-06-05 08:09:00,
2013-06-05 01:14:00,55.2,50.8,29.96,West,271,2.3,2.3,85,0.00,CLR,,0.00,WeatherDisplay:10.37,2013-06-05 08:14:00,
2013-06-05 01:19:00,55.2,50.8,29.96,NW,314,6.0,6.0,85,0.00,CLR,,0.00,WeatherDisplay:10.37,2013-06-05 08:19:00,
2013-06-05 01:24:00,55.1,50.7,29.96,West,277,5.8,5.8,85,0.00,CLR,,0.00,WeatherDisplay:10.37,2013-06-05 08:24:00,
2013-06-05 01:29:00,55.2,50.8,29.96,NNW,342,5.0,5.0,85,0.00,CLR,,0.00,WeatherDisplay:10.37,2013-06-05 08:29:00,
2013-06-05 01:34:00,55.1,50.7,29.96,WSW,257,2.3,2.3,85,0.00,CLR,,0.00,WeatherDisplay:10.37,2013-06-05 08:34:00,
2013-06-05 01:39:00,55.2,50.8,29.96,WNW,295,2.3,2.3,85,0.00,CLR,,0.00,WeatherDisplay:10.37,2013-06-05 08:39:00,
2013-06-05 01:44:00,55.1,50.7,29.96,WNW,301,3.5,3.5,85,0.00,CLR,,0.00,WeatherDisplay:10.37,2013-06-05 08:44:00,
2013-06-05 01:49:00,55.1,50.7,29.96,NW,316,3.5,3.5,85,0.00,CLR,,0.00,WeatherDisplay:10.37,2013-06-05 08:49:00,
2013-06-05 01:54:00,55.1,50.7,29.96,West,280,3.5,3.5,85,0.00,CLR,,0.00,WeatherDisplay:10.37,2013-06-05 08:54:00,
2013-06-05 01:59:00,55.0,50.6,29.96,West,273,2.3,2.3,85,0.00,CLR,,0.00,WeatherDisplay:10.37,2013-06-05 08:59:00,
2013-06-05 02:04:00,55.0,50.6,29.96,WNW,292,2.3,2.3,85,0.00,CLR,,0.00,WeatherDisplay:10.37,2013-06-05 09:04:00,
2013-06-05 02:09:00,55.0,50.6,29.96,WSW,248,3.5,3.5,85,0.00,CLR,,0.00,WeatherDisplay:10.37,2013-06-05 09:09:00,
2013-06-05 02:14:00,55.0,50.6,29.96,WSW,243,3.5,3.5,85,0.00,CLR,,0.00,WeatherDisplay:10.37,2013-06-05 09:14:00,
2013-06-05 02:19:00,55.0,50.6,29.96,WNW,295,3.5,3.5,85,0.00,CLR,,0.00,WeatherDisplay:10.37,2013-06-05 09:19:00,
2013-06-05 02:24:00,55.1,50.7,29.96,WNW,288,3.5,3.5,85,0.00,CLR,,0.00,WeatherDisplay:10.37,2013-06-05 09:24:00,
2013-06-05 02:29:00,55.1,50.7,29.96,WSW,256,4.6,4.6,85,0.00,CLR,,0.00,WeatherDisplay:10.37,2013-06-05 09:29:00,
2013-06-05 02:34:00,55.0,50.6,29.96,WSW,253,2.3,2.3,85,0.00,CLR,,0.00,WeatherDisplay:10.37,2013-06-05 09:34:00,
2013-06-05 02:39:00,55.0,50.6,29.96,NW,309,2.3,2.3,85,0.00,CLR,,0.00,WeatherDisplay:10.37,2013-06-05 09:39:00,
2013-06-05 02:44:00,55.1,50.7,29.96,WNW,299,1.1,1.1,85,0.00,CLR,,0.00,WeatherDisplay:10.37,2013-06-05 09:44:00,
2013-06-05 02:49:00,55.1,50.4,29.96,West,260,2.3,2.3,84,0.00,CLR,,0.00,WeatherDisplay:10.37,2013-06-05 09:49:00,
2013-06-05 02:54:00,55.1,50.4,29.96,West,262,1.1,1.1,84,0.00,CLR,,0.00,WeatherDisplay:10.37,2013-06-05 09:54:00,
2013-06-05 02:59:00,55.0,50.3,29.96,WNW,295,1.1,1.1,84,0.00,CLR,,0.00,WeatherDisplay:10.37,2013-06-05 09:59:00,
2013-06-05 03:04:00,54.9,50.5,29.96,WSW,252,3.5,3.5,85,0.00,CLR,,0.00,WeatherDisplay:10.37,2013-06-05 10:04:00,
2013-06-05 03:09:00,54.9,50.5,29.96,WSW,257,2.3,2.3,85,0.00,CLR,,0.00,WeatherDisplay:10.37,2013-06-05 10:09:00,
2013-06-05 03:14:00,54.8,50.4,29.96,West,263,8.1,8.1,85,0.00,CLR,,0.00,WeatherDisplay:10.37,2013-06-05 10:14:00,
2013-06-05 03:19:00,54.7,50.3,29.96,WNW,283,2.3,2.3,85,0.00,CLR,,0.00,WeatherDisplay:10.37,2013-06-05 10:19:00,
2013-06-05 03:24:00,54.7,50.3,29.96,WNW,290,2.3,2.3,85,0.00,CLR,,0.00,WeatherDisplay:10.37,2013-06-05 10:24:00,
2013-06-05 03:29:00,54.6,50.2,29.96,West,263,3.5,3.5,85,0.00,CLR,,0.00,WeatherDisplay:10.37,2013-06-05 10:29:00,
2013-06-05 03:34:00,54.6,50.2,29.96,WNW,292,2.3,2.3,85,0.00,CLR,,0.00,WeatherDisplay:10.37,2013-06-05 10:34:00,
2013-06-05 03:39:00,54.7,50.3,29.96,WNW,288,1.1,1.1,85,0.00,CLR,,0.00,WeatherDisplay:10.37,2013-06-05 10:39:00,
2013-06-05 03:44:00,54.7,50.3,29.96,West,273,3.5,3.5,85,0.00,CLR,,0.00,WeatherDisplay:10.37,2013-06-05 10:44:00,
2013-06-05 03:49:00,54.7,50.3,29.96,West,267,3.5,3.5,85,0.00,CLR,,0.00,WeatherDisplay:10.37,2013-06-05 10:49:00,
2013-06-05 03:54:00,54.7,50.3,29.96,NW,305,3.5,3.5,85,0.00,CLR,,0.00,WeatherDisplay:10.37,2013-06-05 10:54:00,
2013-06-05 03:59:00,54.6,50.2,29.96,NNW,330,2.3,2.3,85,0.00,CLR,,0.00,WeatherDisplay:10.37,2013-06-05 10:59:00,
2013-06-05 04:04:00,54.6,50.2,29.96,NW,305,3.5,3.5,85,0.00,CLR,,0.00,WeatherDisplay:10.37,2013-06-05 11:04:00,
2013-06-05 04:09:00,54.6,50.2,29.96,NW,323,5.8,5.8,85,0.00,CLR,,0.00,WeatherDisplay:10.37,2013-06-05 11:09:00,
2013-06-05 04:14:00,54.7,50.3,29.96,WNW,297,2.3,2.3,85,0.00,CLR,,0.00,WeatherDisplay:10.37,2013-06-05 11:14:00,
2013-06-05 04:19:00,54.7,50.3,29.97,WNW,298,2.3,2.3,85,0.00,CLR,,0.00,WeatherDisplay:10.37,2013-06-05 11:19:00,
2013-06-05 04:24:00,54.6,50.2,29.96,WNW,302,1.1,1.1,85,0.00,CLR,,0.00,WeatherDisplay:10.37,2013-06-05 11:24:00,
2013-06-05 04:29:00,54.6,50.2,29.96,NW,312,2.3,2.3,85,0.00,CLR,,0.00,WeatherDisplay:10.37,2013-06-05 11:29:00,
2013-06-05 04:34:00,54.6,50.2,29.96,NW,307,3.5,3.5,85,0.00,CLR,,0.00,WeatherDisplay:10.37,2013-06-05 11:34:00,
2013-06-05 04:39:00,54.6,50.2,29.96,West,270,2.3,2.3,85,0.00,CLR,,0.00,WeatherDisplay:10.37,2013-06-05 11:39:00,
2013-06-05 04:44:00,54.6,50.2,29.96,NW,323,2.3,2.3,85,0.00,CLR,,0.00,WeatherDisplay:10.37,2013-06-05 11:44:00,
2013-06-05 04:49:00,54.6,50.2,29.96,WNW,302,3.5,3.9,85,0.00,CLR,,0.00,WeatherDisplay:10.37,2013-06-05 11:49:00,
2013-06-05 04:55:00,54.5,50.4,29.96,NW,311,1.1,1.1,86,0.00,CLR,,0.00,WeatherDisplay:10.37,2013-06-05 11:55:00,
2013-06-05 05:00:00,54.5,50.1,29.96,SW,236,1.1,1.1,85,0.00,CLR,,0.00,WeatherDisplay:10.37,2013-06-05 12:00:00,
2013-06-05 05:05:00,54.6,50.2,29.96,SW,235,3.5,3.5,85,0.00,CLR,,0.00,WeatherDisplay:10.37,2013-06-05 12:05:00,
2013-06-05 05:10:00,54.6,50.2,29.96,WSW,246,1.1,1.1,85,0.00,CLR,,0.00,WeatherDisplay:10.37,2013-06-05 12:10:00,
2013-06-05 05:15:00,54.6,50.2,29.96,WSW,238,2.3,2.3,85,0.00,CLR,,0.00,WeatherDisplay:10.37,2013-06-05 12:15:00,
2013-06-05 05:20:00,54.7,50.3,29.96,West,259,2.3,2.3,85,0.00,CLR,,0.00,WeatherDisplay:10.37,2013-06-05 12:20:00,
2013-06-05 05:25:00,54.7,50.3,29.96,West,259,1.1,1.1,85,0.00,CLR,,0.00,WeatherDisplay:10.37,2013-06-05 12:25:00,
2013-06-05 05:30:00,54.7,50.3,29.96,WSW,255,1.1,1.1,85,0.00,CLR,,0.00,WeatherDisplay:10.37,2013-06-05 12:30:00,
2013-06-05 05:35:00,54.7,50.3,29.97,WSW,239,1.1,1.1,85,0.00,CLR,,0.00,WeatherDisplay:10.37,2013-06-05 12:35:00,
2013-06-05 05:40:00,54.7,50.3,29.97,WSW,245,2.3,2.3,85,0.00,CLR,,0.00,WeatherDisplay:10.37,2013-06-05 12:40:00,
2013-06-05 05:45:00,54.7,50.3,29.97,WSW,242,1.1,0.0,85,0.00,CLR,,0.00,WeatherDisplay:10.37,2013-06-05 12:45:00,
2013-06-05 05:50:00,54.7,50.3,29.97,SW,236,0.0,0.0,85,0.00,CLR,,0.00,WeatherDisplay:10.37,2013-06-05 12:50:00,
2013-06-05 05:55:00,54.7,50.3,29.97,SW,236,1.1,1.1,85,0.00,CLR,,0.00,WeatherDisplay:10.37,2013-06-05 12:55:00,
2013-06-05 06:00:00,54.7,50.3,29.97,SW,235,1.1,1.1,85,0.00,CLR,,0.00,WeatherDisplay:10.37,2013-06-05 13:00:00,
2013-06-05 06:05:00,54.7,50.3,29.97,WSW,257,2.3,2.3,85,0.00,CLR,,0.00,WeatherDisplay:10.37,2013-06-05 13:05:00,
2013-06-05 06:10:00,54.7,50.3,29.97,North,360,2.3,2.3,85,0.00,CLR,,0.00,WeatherDisplay:10.37,2013-06-05 13:10:00,
2013-06-05 06:15:00,54.7,50.3,29.97,NNE,13,3.5,3.5,85,0.00,CLR,,0.00,WeatherDisplay:10.37,2013-06-05 13:15:00,
2013-06-05 06:20:00,54.8,50.7,29.97,NNW,332,0.0,0.1,86,0.00,CLR,,0.00,WeatherDisplay:10.37,2013-06-05 13:20:00,
2013-06-05 06:25:00,54.9,50.5,29.97,NNW,332,0.0,0.0,85,0.00,CLR,,0.00,WeatherDisplay:10.37,2013-06-05 13:25:00,
2013-06-05 06:30:00,55.0,50.6,29.98,WSW,240,2.3,2.3,85,0.00,CLR,,0.00,WeatherDisplay:10.37,2013-06-05 13:30:00,
2013-06-05 06:35:00,55.0,50.6,29.98,WSW,239,0.0,0.0,85,0.00,CLR,,0.00,WeatherDisplay:10.37,2013-06-05 13:35:00,
2013-06-05 06:40:00,55.0,50.6,29.98,SSW,204,1.1,1.1,85,0.00,CLR,,0.00,WeatherDisplay:10.37,2013-06-05 13:40:00,
2013-06-05 06:45:00,55.1,50.7,29.98,SW,231,1.1,1.1,85,0.00,CLR,,0.00,WeatherDisplay:10.37,2013-06-05 13:45:00,
2013-06-05 06:50:00,55.2,50.8,29.98,WNW,294,1.1,1.1,85,0.00,CLR,,0.00,WeatherDisplay:10.37,2013-06-05 13:50:00,
2013-06-05 06:55:00,55.2,50.4,29.98,NW,305,3.5,3.5,84,0.00,CLR,,0.00,WeatherDisplay:10.37,2013-06-05 13:55:00,
2013-06-05 07:00:00,55.2,50.4,29.98,WNW,303,2.3,2.3,84,0.00,CLR,,0.00,WeatherDisplay:10.37,2013-06-05 14:00:00,
2013-06-05 07:05:00,55.2,50.4,29.98,NW,307,3.0,3.0,84,0.00,CLR,,0.00,WeatherDisplay:10.37,2013-06-05 14:05:00,
2013-06-05 07:10:00,55.3,50.5,29.98,NW,307,1.1,1.1,84,0.00,CLR,,0.00,WeatherDisplay:10.37,2013-06-05 14:10:00,
2013-06-05 07:15:00,55.3,50.5,29.99,NW,322,3.5,3.5,84,0.00,CLR,,0.00,WeatherDisplay:10.37,2013-06-05 14:15:00,
2013-06-05 07:20:00,55.4,50.6,29.99,SW,233,2.3,2.3,84,0.00,CLR,,0.00,WeatherDisplay:10.37,2013-06-05 14:20:00,
2013-06-05 07:25:00,55.5,50.7,29.99,WNW,285,1.1,1.1,84,0.00,CLR,,0.00,WeatherDisplay:10.37,2013-06-05 14:25:00,
2013-06-05 07:30:00,55.5,50.7,29.99,North,349,2.3,2.3,84,0.00,CLR,,0.00,WeatherDisplay:10.37,2013-06-05 14:30:00,
2013-06-05 07:35:00,55.5,50.7,29.99,NW,319,2.3,2.3,84,0.00,CLR,,0.00,WeatherDisplay:10.37,2013-06-05 14:35:00,
2013-06-05 07:40:00,55.5,50.7,29.99,NNE,23,3.5,3.5,84,0.00,CLR,,0.00,WeatherDisplay:10.37,2013-06-05 14:40:00,
2013-06-05 07:45:00,55.6,50.8,29.99,ENE,63,2.0,2.0,84,0.00,CLR,,0.00,WeatherDisplay:10.37,2013-06-05 14:45:00,
2013-06-05 07:50:00,55.9,50.8,29.99,ENE,74,2.3,2.3,83,0.00,CLR,,0.00,WeatherDisplay:10.37,2013-06-05 14:50:00,
2013-06-05 07:55:00,56.0,50.9,29.99,North,353,3.5,3.5,83,0.00,CLR,,0.00,WeatherDisplay:10.37,2013-06-05 14:55:00,
2013-06-05 08:00:00,55.9,50.8,29.99,NE,56,2.3,2.3,83,0.00,CLR,,0.00,WeatherDisplay:10.37,2013-06-05 15:00:00,
2013-06-05 08:05:00,56.0,50.9,29.99,North,357,1.1,1.1,83,0.00,CLR,,0.00,WeatherDisplay:10.37,2013-06-05 15:05:00,
2013-06-05 08:10:00,56.4,51.3,29.99,NW,326,1.1,1.1,83,0.00,CLR,,0.00,WeatherDisplay:10.37,2013-06-05 15:10:00,
2013-06-05 08:15:00,56.6,50.8,30.00,NW,319,1.1,1.1,81,0.00,CLR,,0.00,WeatherDisplay:10.37,2013-06-05 15:15:00,
2013-06-05 08:20:00,56.7,50.9,30.00,North,349,0.0,0.0,81,0.00,CLR,,0.00,WeatherDisplay:10.37,2013-06-05 15:20:00,
2013-06-05 08:25:00,56.9,51.1,30.00,NNW,334,3.5,3.5,81,0.00,CLR,,0.00,WeatherDisplay:10.37,2013-06-05 15:25:00,
2013-06-05 08:30:00,57.0,50.9,30.00,ENE,67,3.5,3.5,80,0.00,CLR,,0.00,WeatherDisplay:10.37,2013-06-05 15:30:00,
2013-06-05 08:35:00,57.4,51.6,30.00,NW,322,3.5,3.5,81,0.00,CLR,,0.00,WeatherDisplay:10.37,2013-06-05 15:35:00,
2013-06-05 08:40:00,57.4,51.3,30.00,NW,307,2.3,2.3,80,0.00,CLR,,0.00,WeatherDisplay:10.37,2013-06-05 15:40:00,
2013-06-05 08:45:00,57.6,51.5,30.00,NNE,12,3.5,3.5,80,0.00,CLR,,0.00,WeatherDisplay:10.37,2013-06-05 15:45:00,
2013-06-05 08:50:00,57.5,51.4,30.00,NNE,15,3.5,3.5,80,0.00,CLR,,0.00,WeatherDisplay:10.37,2013-06-05 15:50:00,
2013-06-05 08:55:00,57.9,51.4,30.00,North,9,3.5,3.5,79,0.00,CLR,,0.00,WeatherDisplay:10.37,2013-06-05 15:55:00,
2013-06-05 09:00:00,58.1,51.6,30.00,NNW,330,3.5,3.5,79,0.00,CLR,,0.00,WeatherDisplay:10.37,2013-06-05 16:00:00,
2013-06-05 09:05:00,58.2,51.7,30.00,NNE,27,2.3,2.3,79,0.00,CLR,,0.00,WeatherDisplay:10.37,2013-06-05 16:05:00,
2013-06-05 09:10:00,58.6,52.1,30.00,ENE,71,3.5,3.5,79,0.00,CLR,,0.00,WeatherDisplay:10.37,2013-06-05 16:10:00,
2013-06-05 09:15:00,58.6,51.8,30.00,West,276,1.1,1.1,78,0.00,CLR,,0.00,WeatherDisplay:10.37,2013-06-05 16:15:00,
2013-06-05 09:20:00,58.6,52.1,29.99,North,349,3.5,3.5,79,0.00,CLR,,0.00,WeatherDisplay:10.37,2013-06-05 16:20:00,
2013-06-05 09:25:00,59.1,52.2,29.99,SSE,156,2.3,2.3,78,0.00,CLR,,0.00,WeatherDisplay:10.37,2013-06-05 16:25:00,
2013-06-05 09:30:00,59.7,52.5,29.99,SSW,212,3.5,3.5,77,0.00,CLR,,0.00,WeatherDisplay:10.37,2013-06-05 16:30:00,
2013-06-05 09:35:00,59.9,52.0,29.99,NW,312,3.5,3.5,75,0.00,CLR,,0.00,WeatherDisplay:10.37,2013-06-05 16:35:00,
2013-06-05 09:40:00,60.0,52.8,29.99,SSW,208,3.0,3.0,77,0.00,CLR,,0.00,WeatherDisplay:10.37,2013-06-05 16:40:00,
2013-06-05 09:45:00,60.2,52.6,29.99,West,276,3.5,3.5,76,0.00,CLR,,0.00,WeatherDisplay:10.37,2013-06-05 16:45:00,
2013-06-05 09:50:00,60.6,52.6,29.99,SSW,204,2.3,2.3,75,0.00,CLR,,0.00,WeatherDisplay:10.37,2013-06-05 16:50:00,
2013-06-05 09:55:00,60.9,52.9,29.99,SE,142,1.1,1.1,75,0.00,CLR,,0.00,WeatherDisplay:10.37,2013-06-05 16:55:00,
2013-06-05 10:00:00,61.6,53.6,29.99,SE,146,1.1,1.1,75,0.00,CLR,,0.00,WeatherDisplay:10.37,2013-06-05 17:00:00,
2013-06-05 10:05:00,62.2,53.8,29.99,SW,214,3.5,3.5,74,0.00,CLR,,0.00,WeatherDisplay:10.37,2013-06-05 17:05:00,
2013-06-05 10:10:00,62.5,53.3,29.99,SSE,148,3.5,3.5,72,0.00,CLR,,0.00,WeatherDisplay:10.37,2013-06-05 17:10:00,
2013-06-05 10:15:00,62.2,53.4,29.99,South,170,4.6,4.6,73,0.00,CLR,,0.00,WeatherDisplay:10.37,2013-06-05 17:15:00,
2013-06-05 10:20:00,62.6,53.8,29.99,NNE,18,2.3,2.3,73,0.00,CLR,,0.00,WeatherDisplay:10.37,2013-06-05 17:20:00,
2013-06-05 10:25:00,62.9,53.7,29.98,ENE,78,2.0,2.0,72,0.00,CLR,,0.00,WeatherDisplay:10.37,2013-06-05 17:25:00,
2013-06-05 10:30:00,63.3,53.7,29.98,SW,224,2.0,2.0,71,0.00,CLR,,0.00,WeatherDisplay:10.37,2013-06-05 17:30:00,
2013-06-05 10:35:00,63.7,54.1,29.98,ESE,115,3.5,3.5,71,0.00,CLR,,0.00,WeatherDisplay:10.37,2013-06-05 17:35:00,
2013-06-05 10:40:00,63.8,53.8,29.98,SE,133,4.6,4.6,70,0.00,CLR,,0.00,WeatherDisplay:10.37,2013-06-05 17:40:00,
2013-06-05 10:45:00,64.1,54.1,29.98,WSW,240,3.5,3.5,70,0.00,CLR,,0.00,WeatherDisplay:10.37,2013-06-05 17:45:00,
2013-06-05 10:50:00,64.4,54.0,29.98,WSW,246,4.0,4.0,69,0.00,CLR,,0.00,WeatherDisplay:10.37,2013-06-05 17:50:00,
2013-06-05 10:55:00,64.9,54.5,29.98,ENE,72,3.5,3.5,69,0.00,CLR,,0.00,WeatherDisplay:10.37,2013-06-05 17:55:00,
2013-06-05 11:00:00,66.0,55.1,29.98,SE,126,3.5,3.5,68,0.00,CLR,,0.00,WeatherDisplay:10.37,2013-06-05 18:00:00,
2013-06-05 11:05:00,66.4,54.7,29.98,SSE,165,3.5,3.5,66,0.00,CLR,,0.00,WeatherDisplay:10.37,2013-06-05 18:05:00,
2013-06-05 11:10:00,67.0,55.7,29.98,SE,139,2.3,2.3,67,0.00,CLR,,0.00,WeatherDisplay:10.37,2013-06-05 18:10:00,
2013-06-05 11:15:00,67.9,54.8,29.98,SE,133,3.5,3.5,63,0.00,CLR,,0.00,WeatherDisplay:10.37,2013-06-05 18:15:00,
2013-06-05 11:20:00,68.6,55.1,29.97,South,176,2.3,2.3,62,0.00,CLR,,0.00,WeatherDisplay:10.37,2013-06-05 18:20:00,
2013-06-05 11:25:00,68.9,55.3,29.97,SE,144,3.5,3.5,62,0.00,CLR,,0.00,WeatherDisplay:10.37,2013-06-05 18:25:00,
2013-06-05 11:30:00,69.1,55.1,29.97,SSE,155,3.5,3.5,61,0.00,CLR,,0.00,WeatherDisplay:10.37,2013-06-05 18:30:00,
2013-06-05 11:35:00,69.3,55.3,29.97,SE,135,6.9,6.9,61,0.00,CLR,,0.00,WeatherDisplay:10.37,2013-06-05 18:35:00,
2013-06-05 11:40:00,69.8,55.7,29.97,SSE,150,5.8,5.8,61,0.00,CLR,,0.00,WeatherDisplay:10.37,2013-06-05 18:40:00,
2013-06-05 11:45:00,70.5,55.9,29.97,SSW,199,5.8,5.8,60,0.00,CLR,,0.00,WeatherDisplay:10.37,2013-06-05 18:45:00,
2013-06-05 11:50:00,71.0,55.5,29.97,SSE,152,3.5,3.5,58,0.00,CLR,,0.00,WeatherDisplay:10.37,2013-06-05 18:50:00,
2013-06-05 11:55:00,71.1,56.0,29.97,SSE,155,4.6,4.6,59,0.00,CLR,,0.00,WeatherDisplay:10.37,2013-06-05 18:55:00,
2013-06-05 12:00:00,71.2,55.7,29.96,SE,124,6.9,6.9,58,0.00,CLR,,0.00,WeatherDisplay:10.37,2013-06-05 19:00:00,
2013-06-05 12:05:00,71.3,55.8,29.96,SE,132,3.5,3.5,58,0.00,CLR,,0.00,WeatherDisplay:10.37,2013-06-05 19:05:00,
2013-06-05 12:10:00,71.8,55.7,29.96,SSE,156,8.1,8.1,57,0.00,CLR,,0.00,WeatherDisplay:10.37,2013-06-05 19:10:00,
2013-06-05 12:15:00,72.2,56.1,29.96,SSW,207,5.0,5.0,57,0.00,CLR,,0.00,WeatherDisplay:10.37,2013-06-05 19:15:00,
2013-06-05 12:20:00,72.8,56.7,29.96,SE,134,5.8,5.8,57,0.00,CLR,,0.00,WeatherDisplay:10.37,2013-06-05 19:20:00,
2013-06-05 12:25:00,73.6,55.9,29.95,South,183,6.9,6.9,54,0.00,CLR,,0.00,WeatherDisplay:10.37,2013-06-05 19:25:00,
2013-06-05 12:30:00,74.1,56.4,29.95,South,172,6.9,6.9,54,0.00,CLR,,0.00,WeatherDisplay:10.37,2013-06-05 19:30:00,
2013-06-05 12:35:00,74.1,56.4,29.95,SE,124,3.5,3.5,54,0.00,CLR,,0.00,WeatherDisplay:10.37,2013-06-05 19:35:00,
2013-06-05 12:40:00,74.1,56.9,29.95,SE,128,3.5,3.5,55,0.00,CLR,,0.00,WeatherDisplay:10.37,2013-06-05 19:40:00,
2013-06-05 12:45:00,74.6,56.9,29.95,SE,141,3.5,3.5,54,0.00,CLR,,0.00,WeatherDisplay:10.37,2013-06-05 19:45:00,
2013-06-05 12:50:00,75.0,56.7,29.94,SW,214,4.6,4.6,53,0.00,CLR,,0.00,WeatherDisplay:10.37,2013-06-05 19:50:00,
2013-06-05 12:55:00,75.3,56.5,29.94,SSE,148,4.6,4.6,52,0.00,CLR,,0.00,WeatherDisplay:10.37,2013-06-05 19:55:00,
2013-06-05 13:00:00,75.6,56.7,29.94,SE,124,2.3,2.3,52,0.00,CLR,,0.00,WeatherDisplay:10.37,2013-06-05 20:00:00,
2013-06-05 13:05:00,75.7,56.8,29.94,SSE,156,6.9,6.9,52,0.00,CLR,,0.00,WeatherDisplay:10.37,2013-06-05 20:05:00,
2013-06-05 13:10:00,76.2,58.3,29.93,ESE,117,2.3,2.3,54,0.00,CLR,,0.00,WeatherDisplay:10.37,2013-06-05 20:10:00,
2013-06-05 13:15:00,76.9,57.4,29.93,SSE,150,4.6,4.6,51,0.00,CLR,,0.00,WeatherDisplay:10.37,2013-06-05 20:15:00,
2013-06-05 13:20:00,76.8,57.3,29.93,SE,131,5.8,5.8,51,0.00,CLR,,0.00,WeatherDisplay:10.37,2013-06-05 20:20:00,
2013-06-05 13:25:00,76.5,57.0,29.93,SE,132,4.6,4.6,51,0.00,CLR,,0.00,WeatherDisplay:10.37,2013-06-05 20:25:00,
2013-06-05 13:30:00,76.7,58.3,29.93,SSE,162,3.5,3.5,53,0.00,CLR,,0.00,WeatherDisplay:10.37,2013-06-05 20:30:00,
2013-06-05 13:35:00,77.0,56.9,29.93,South,171,10.0,10.0,50,0.00,CLR,,0.00,WeatherDisplay:10.37,2013-06-05 20:35:00,
2013-06-05 13:40:00,76.7,57.2,29.93,SE,138,3.5,3.5,51,0.00,CLR,,0.00,WeatherDisplay:10.37,2013-06-05 20:40:00,
2013-06-05 13:45:00,76.6,57.1,29.92,SW,219,4.0,4.0,51,0.00,CLR,,0.00,WeatherDisplay:10.37,2013-06-05 20:45:00,
2013-06-05 13:50:00,77.1,57.6,29.92,South,184,9.0,9.0,51,0.00,CLR,,0.00,WeatherDisplay:10.37,2013-06-05 20:50:00,
2013-06-05 13:55:00,77.0,58.0,29.92,SSE,154,9.2,9.2,52,0.00,CLR,,0.00,WeatherDisplay:10.37,2013-06-05 20:55:00,
2013-06-05 14:00:00,76.8,57.8,29.92,SE,132,4.0,4.0,52,0.00,CLR,,0.00,WeatherDisplay:10.37,2013-06-05 21:00:00,
2013-06-05 14:05:00,76.6,57.7,29.92,SE,129,9.2,9.2,52,0.00,CLR,,0.00,WeatherDisplay:10.37,2013-06-05 21:05:00,
2013-06-05 14:10:00,76.1,57.7,29.92,ESE,116,4.6,4.6,53,0.00,CLR,,0.00,WeatherDisplay:10.37,2013-06-05 21:10:00,
2013-06-05 14:15:00,76.2,58.3,29.92,ESE,122,8.1,8.1,54,0.00,CLR,,0.00,WeatherDisplay:10.37,2013-06-05 21:15:00,
2013-06-05 14:20:00,76.9,57.9,29.92,SE,146,11.5,11.5,52,0.00,CLR,,0.00,WeatherDisplay:10.37,2013-06-05 21:20:00,
2013-06-05 14:25:00,76.8,57.8,29.92,SE,132,8.1,8.1,52,0.00,CLR,,0.00,WeatherDisplay:10.37,2013-06-05 21:25:00,
2013-06-05 14:30:00,76.3,58.4,29.91,ESE,114,6.9,6.9,54,0.00,CLR,,0.00,WeatherDisplay:10.37,2013-06-05 21:30:00,
2013-06-05 14:35:00,75.9,58.1,29.91,SE,128,6.9,6.9,54,0.00,CLR,,0.00,WeatherDisplay:10.37,2013-06-05 21:35:00,
2013-06-05 14:40:00,76.4,58.0,29.92,SSW,199,11.5,11.5,53,0.00,CLR,,0.00,WeatherDisplay:10.37,2013-06-05 21:40:00,
2013-06-05 14:45:00,76.4,58.5,29.91,SE,134,4.6,4.6,54,0.00,CLR,,0.00,WeatherDisplay:10.37,2013-06-05 21:45:00,
2013-06-05 14:50:00,76.6,58.2,29.91,ESE,108,5.0,5.0,53,0.00,CLR,,0.00,WeatherDisplay:10.37,2013-06-05 21:50:00,
2013-06-05 14:55:00,76.3,57.9,29.91,South,176,10.0,10.0,53,0.00,CLR,,0.00,WeatherDisplay:10.37,2013-06-05 21:55:00,
2013-06-05 15:00:00,76.4,58.5,29.91,South,169,6.0,6.0,54,0.00,CLR,,0.00,WeatherDisplay:10.37,2013-06-05 22:00:00,
2013-06-05 15:05:00,76.6,58.2,29.91,South,180,11.5,11.5,53,0.00,CLR,,0.00,WeatherDisplay:10.37,2013-06-05 22:05:00,
2013-06-05 15:10:00,76.7,58.3,29.91,ESE,112,3.5,3.5,53,0.00,CLR,,0.00,WeatherDisplay:10.37,2013-06-05 22:10:00,
2013-06-05 15:15:00,76.5,58.6,29.91,SSW,195,11.0,11.0,54,0.00,CLR,,0.00,WeatherDisplay:10.37,2013-06-05 22:15:00,
2013-06-05 15:20:00,76.4,58.5,29.91,South,191,9.2,9.2,54,0.00,CLR,,0.00,WeatherDisplay:10.37,2013-06-05 22:20:00,
2013-06-05 15:25:00,76.1,58.2,29.90,ESE,113,5.8,5.8,54,0.00,CLR,,0.00,WeatherDisplay:10.37,2013-06-05 22:25:00,
2013-06-05 15:30:00,76.2,58.9,29.90,SE,138,5.8,5.8,55,0.00,CLR,,0.00,WeatherDisplay:10.37,2013-06-05 22:30:00,
2013-06-05 15:35:00,76.4,58.5,29.90,SE,139,8.1,8.1,54,0.00,CLR,,0.00,WeatherDisplay:10.37,2013-06-05 22:35:00,
2013-06-05 15:40:00,76.3,58.4,29.90,SE,132,8.1,8.1,54,0.00,CLR,,0.00,WeatherDisplay:10.37,2013-06-05 22:40:00,
2013-06-05 15:45:00,76.6,58.2,29.90,SE,143,9.2,9.2,53,0.00,CLR,,0.00,WeatherDisplay:10.37,2013-06-05 22:45:00,
2013-06-05 15:50:00,76.5,58.1,29.89,SE,143,7.0,7.0,53,0.00,CLR,,0.00,WeatherDisplay:10.37,2013-06-05 22:50:00,
2013-06-05 15:55:00,76.1,57.7,29.90,SE,125,6.9,6.9,53,0.00,CLR,,0.00,WeatherDisplay:10.37,2013-06-05 22:55:00,
2013-06-05 16:00:00,75.6,58.8,29.89,SE,125,11.5,11.5,56,0.00,CLR,,0.00,WeatherDisplay:10.37,2013-06-05 23:00:00,
2013-06-05 16:05:00,75.8,58.5,29.89,SSE,152,5.8,5.8,55,0.00,CLR,,0.00,WeatherDisplay:10.37,2013-06-05 23:05:00,
2013-06-05 16:10:00,75.4,58.1,29.89,South,173,15.0,15.0,55,0.00,CLR,,0.00,WeatherDisplay:10.37,2013-06-05 23:10:00,
2013-06-05 16:15:00,75.2,57.9,29.89,South,172,5.8,5.8,55,0.00,CLR,,0.00,WeatherDisplay:10.37,2013-06-05 23:15:00,
2013-06-05 16:20:00,75.3,58.5,29.89,ESE,118,8.1,8.1,56,0.00,CLR,,0.00,WeatherDisplay:10.37,2013-06-05 23:20:00,
2013-06-05 16:25:00,75.1,57.8,29.89,SE,139,11.0,11.0,55,0.00,CLR,,0.00,WeatherDisplay:10.37,2013-06-05 23:25:00,
2013-06-05 16:30:00,74.9,58.1,29.89,South,170,5.8,5.8,56,0.00,CLR,,0.00,WeatherDisplay:10.37,2013-06-05 23:30:00,
2013-06-05 16:35:00,74.8,58.1,29.88,SE,139,5.0,5.0,56,0.00,CLR,,0.00,WeatherDisplay:10.37,2013-06-05 23:35:00,
2013-06-05 16:40:00,74.6,57.9,29.88,SE,141,4.6,4.6,56,0.00,CLR,,0.00,WeatherDisplay:10.37,2013-06-05 23:40:00,
2013-06-05 16:45:00,74.7,58.0,29.88,SE,124,6.9,6.9,56,0.00,CLR,,0.00,WeatherDisplay:10.37,2013-06-05 23:45:00,
2013-06-05 16:50:00,74.5,57.8,29.88,SSE,150,4.6,4.6,56,0.00,CLR,,0.00,WeatherDisplay:10.37,2013-06-05 23:50:00,
2013-06-05 16:55:00,74.6,57.4,29.88,SE,126,4.6,4.6,55,0.00,CLR,,0.00,WeatherDisplay:10.37,2013-06-05 23:55:00,
2013-06-05 17:00:00,74.6,57.9,29.88,South,183,4.0,4.0,56,0.00,CLR,,0.00,WeatherDisplay:10.37,2013-06-06 00:00:00,
2013-06-05 17:05:00,74.7,57.5,29.88,SSE,163,10.4,10.4,55,0.00,CLR,,0.00,WeatherDisplay:10.37,2013-06-06 00:05:00,
2013-06-05 17:10:00,74.8,57.0,29.88,SE,131,3.5,3.5,54,0.00,CLR,,0.00,WeatherDisplay:10.37,2013-06-06 00:10:00,
2013-06-05 17:15:00,74.9,57.6,29.88,SSE,150,8.0,8.0,55,0.00,CLR,,0.00,WeatherDisplay:10.37,2013-06-06 00:15:00,
2013-06-05 17:20:00,75.0,57.2,29.88,SE,126,6.9,6.9,54,0.00,CLR,,0.00,WeatherDisplay:10.37,2013-06-06 00:20:00,
2013-06-05 17:25:00,75.0,57.2,29.88,ESE,118,5.0,5.0,54,0.00,CLR,,0.00,WeatherDisplay:10.37,2013-06-06 00:25:00,
2013-06-05 17:30:00,75.0,57.2,29.88,ESE,118,11.5,11.5,54,0.00,CLR,,0.00,WeatherDisplay:10.37,2013-06-06 00:30:00,
2013-06-05 17:35:00,75.0,56.7,29.88,SE,135,12.0,12.0,53,0.00,CLR,,0.00,WeatherDisplay:10.37,2013-06-06 00:35:00,
2013-06-05 17:40:00,74.7,56.9,29.87,SSE,150,6.9,6.9,54,0.00,CLR,,0.00,WeatherDisplay:10.37,2013-06-06 00:40:00,
2013-06-05 17:45:00,74.8,57.0,29.87,SE,124,3.5,3.5,54,0.00,CLR,,0.00,WeatherDisplay:10.37,2013-06-06 00:45:00,
2013-06-05 17:50:00,74.4,56.2,29.87,ESE,121,10.4,10.4,53,0.00,CLR,,0.00,WeatherDisplay:10.37,2013-06-06 00:50:00,
2013-06-05 17:55:00,73.9,56.2,29.87,SSE,153,11.5,11.5,54,0.00,CLR,,0.00,WeatherDisplay:10.37,2013-06-06 00:55:00,
2013-06-05 18:00:00,73.8,56.6,29.87,South,175,5.0,5.0,55,0.00,CLR,,0.00,WeatherDisplay:10.37,2013-06-06 01:00:00,
2013-06-05 18:05:00,73.9,56.7,29.87,SSE,161,4.6,4.6,55,0.00,CLR,,0.00,WeatherDisplay:10.37,2013-06-06 01:05:00,
2013-06-05 18:10:00,74.0,56.3,29.87,SSE,159,8.1,8.1,54,0.00,CLR,,0.00,WeatherDisplay:10.37,2013-06-06 01:10:00,
2013-06-05 18:15:00,73.7,56.5,29.87,SSW,211,11.5,11.5,55,0.00,CLR,,0.00,WeatherDisplay:10.37,2013-06-06 01:15:00,
2013-06-05 18:20:00,73.6,56.4,29.87,South,170,8.0,8.0,55,0.00,CLR,,0.00,WeatherDisplay:10.37,2013-06-06 01:20:00,
2013-06-05 18:25:00,73.5,55.8,29.87,SE,134,11.5,11.5,54,0.00,CLR,,0.00,WeatherDisplay:10.37,2013-06-06 01:25:00,
2013-06-05 18:30:00,73.2,56.1,29.87,SSE,160,8.1,8.1,55,0.00,CLR,,0.00,WeatherDisplay:10.37,2013-06-06 01:30:00,
2013-06-05 18:35:00,73.0,55.9,29.87,South,181,8.1,8.1,55,0.00,CLR,,0.00,WeatherDisplay:10.37,2013-06-06 01:35:00,
2013-06-05 18:40:00,72.6,56.0,29.87,SSE,167,10.4,10.4,56,0.00,CLR,,0.00,WeatherDisplay:10.37,2013-06-06 01:40:00,
2013-06-05 18:45:00,72.3,55.7,29.87,SE,131,4.6,4.6,56,0.00,CLR,,0.00,WeatherDisplay:10.37,2013-06-06 01:45:00,
2013-06-05 18:50:00,72.0,55.4,29.88,SE,131,5.8,5.8,56,0.00,CLR,,0.00,WeatherDisplay:10.37,2013-06-06 01:50:00,
2013-06-05 18:55:00,71.8,55.7,29.87,SE,143,3.5,3.5,57,0.00,CLR,,0.00,WeatherDisplay:10.37,2013-06-06 01:55:00,
2013-06-05 19:00:00,71.8,56.2,29.88,ESE,121,4.6,4.6,58,0.00,CLR,,0.00,WeatherDisplay:10.37,2013-06-06 02:00:00,
2013-06-05 19:05:00,71.6,55.6,29.88,SE,134,4.6,4.6,57,0.00,CLR,,0.00,WeatherDisplay:10.37,2013-06-06 02:05:00,
2013-06-05 19:10:00,71.3,55.3,29.88,SE,129,8.1,8.1,57,0.00,CLR,,0.00,WeatherDisplay:10.37,2013-06-06 02:10:00,
2013-06-05 19:15:00,70.8,55.3,29.88,SSE,150,4.6,4.6,58,0.00,CLR,,0.00,WeatherDisplay:10.37,2013-06-06 02:15:00,
2013-06-05 19:20:00,70.3,55.3,29.88,SE,143,3.5,3.5,59,0.00,CLR,,0.00,WeatherDisplay:10.37,2013-06-06 02:20:00,
2013-06-05 19:25:00,69.9,54.9,29.88,ESE,118,5.8,5.8,59,0.00,CLR,,0.00,WeatherDisplay:10.37,2013-06-06 02:25:00,
2013-06-05 19:30:00,69.7,55.2,29.88,ESE,118,3.5,3.5,60,0.00,CLR,,0.00,WeatherDisplay:10.37,2013-06-06 02:30:00,
2013-06-05 19:35:00,69.5,55.0,29.89,SE,132,4.6,4.6,60,0.00,CLR,,0.00,WeatherDisplay:10.37,2013-06-06 02:35:00,
2013-06-05 19:40:00,69.1,54.6,29.89,SSE,160,6.9,6.9,60,0.00,CLR,,0.00,WeatherDisplay:10.37,2013-06-06 02:40:00,
2013-06-05 19:45:00,68.9,54.4,29.89,SE,131,6.9,6.9,60,0.00,CLR,,0.00,WeatherDisplay:10.37,2013-06-06 02:45:00,
2013-06-05 19:50:00,68.4,54.4,29.89,SE,146,7.0,7.0,61,0.00,CLR,,0.00,WeatherDisplay:10.37,2013-06-06 02:50:00,
2013-06-05 19:55:00,67.9,54.4,29.89,SE,136,11.5,11.5,62,0.00,CLR,,0.00,WeatherDisplay:10.37,2013-06-06 02:55:00,
2013-06-05 20:00:00,67.5,54.0,29.90,SSE,152,6.9,6.9,62,0.00,CLR,,0.00,WeatherDisplay:10.37,2013-06-06 03:00:00,
2013-06-05 20:05:00,67.0,54.0,29.90,SE,146,8.1,8.1,63,0.00,CLR,,0.00,WeatherDisplay:10.37,2013-06-06 03:05:00,
2013-06-05 20:10:00,66.3,53.8,29.90,SSE,163,5.8,5.8,64,0.00,CLR,,0.00,WeatherDisplay:10.37,2013-06-06 03:10:00,
2013-06-05 20:15:00,65.6,53.5,29.90,SSE,153,4.6,4.6,65,0.00,CLR,,0.00,WeatherDisplay:10.37,2013-06-06 03:15:00,
2013-06-05 20:20:00,65.0,53.4,29.90,South,185,6.9,6.9,66,0.00,CLR,,0.00,WeatherDisplay:10.37,2013-06-06 03:20:00,
2013-06-05 20:25:00,64.5,53.3,29.90,SSE,152,4.6,4.6,67,0.00,CLR,,0.00,WeatherDisplay:10.37,2013-06-06 03:25:00,
2013-06-05 20:30:00,63.9,53.1,29.90,ESE,115,6.9,6.9,68,0.00,CLR,,0.00,WeatherDisplay:10.37,2013-06-06 03:30:00,
2013-06-05 20:35:00,63.4,53.0,29.90,SSE,165,6.9,6.9,69,0.00,CLR,,0.00,WeatherDisplay:10.37,2013-06-06 03:35:00,
2013-06-05 20:40:00,62.9,53.0,29.90,South,169,3.5,3.5,70,0.00,CLR,,0.00,WeatherDisplay:10.37,2013-06-06 03:40:00,
2013-06-05 20:45:00,62.3,52.8,29.91,SSE,148,8.0,8.0,71,0.00,CLR,,0.00,WeatherDisplay:10.37,2013-06-06 03:45:00,
2013-06-05 20:50:00,61.8,52.7,29.91,SSE,150,6.0,6.0,72,0.00,CLR,,0.00,WeatherDisplay:10.37,2013-06-06 03:50:00,
2013-06-05 20:55:00,61.3,52.6,29.91,SE,141,5.8,5.8,73,0.00,CLR,,0.00,WeatherDisplay:10.37,2013-06-06 03:55:00,
2013-06-05 21:00:00,61.0,52.3,29.91,SE,143,5.8,5.8,73,0.00,CLR,,0.00,WeatherDisplay:10.37,2013-06-06 04:00:00,
2013-06-05 21:01:00,60.9,52.2,29.91,SSE,149,6.0,6.0,73,0.00,CLR,,0.00,WeatherDisplay:10.37,2013-06-06 04:01:00,
2013-06-05 21:02:00,60.9,52.2,29.91,SSE,159,4.6,4.6,73,0.00,CLR,,0.00,WeatherDisplay:10.37,2013-06-06 04:02:00,
2013-06-05 21:04:00,60.7,52.4,29.91,SSE,149,3.5,3.5,74,0.00,CLR,,0.00,WeatherDisplay:10.37,2013-06-06 04:04:00,
2013-06-05 21:09:00,60.3,52.3,29.92,SE,142,4.6,4.6,75,0.00,CLR,,0.00,WeatherDisplay:10.37,2013-06-06 04:09:00,
2013-06-05 21:14:00,59.9,52.0,29.92,SE,143,4.0,4.3,75,0.00,CLR,,0.00,WeatherDisplay:10.37,2013-06-06 04:14:00,
2013-06-05 21:15:00,59.9,52.0,29.92,SSE,148,8.1,8.1,75,0.00,CLR,,0.00,WeatherDisplay:10.37,2013-06-06 04:15:00,
2013-06-05 21:20:00,59.6,52.0,29.92,SSE,153,8.1,8.1,76,0.00,CLR,,0.00,WeatherDisplay:10.37,2013-06-06 04:20:00,
2013-06-05 21:25:00,59.2,52.0,29.92,SSW,210,6.9,6.9,77,0.00,CLR,,0.00,WeatherDisplay:10.37,2013-06-06 04:25:00,
2013-06-05 21:30:00,59.0,51.8,29.92,SE,134,8.1,8.1,77,0.00,CLR,,0.00,WeatherDisplay:10.37,2013-06-06 04:30:00,
2013-06-05 21:35:00,58.7,51.9,29.93,SSE,161,6.9,6.9,78,0.00,CLR,,0.00,WeatherDisplay:10.37,2013-06-06 04:35:00,
2013-06-05 21:40:00,58.4,51.6,29.93,SSE,161,4.6,4.6,78,0.00,CLR,,0.00,WeatherDisplay:10.37,2013-06-06 04:40:00,
2013-06-05 21:45:00,58.2,51.7,29.93,SSW,193,4.0,4.0,79,0.00,CLR,,0.00,WeatherDisplay:10.37,2013-06-06 04:45:00,
2013-06-05 21:50:00,58.0,51.5,29.93,South,169,8.1,8.1,79,0.00,CLR,,0.00,WeatherDisplay:10.37,2013-06-06 04:50:00,
2013-06-05 21:55:00,57.7,51.6,29.93,SSE,163,9.2,9.2,80,0.00,CLR,,0.00,WeatherDisplay:10.37,2013-06-06 04:55:00,
2013-06-05 22:00:00,57.4,51.3,29.93,South,186,5.8,5.8,80,0.00,CLR,,0.00,WeatherDisplay:10.37,2013-06-06 05:00:00,
2013-06-05 22:05:00,57.3,51.5,29.93,SSE,167,8.1,8.1,81,0.00,CLR,,0.00,WeatherDisplay:10.37,2013-06-06 05:05:00,
2013-06-05 22:10:00,57.1,51.3,29.94,SSW,197,4.6,4.6,81,0.00,CLR,,0.00,WeatherDisplay:10.37,2013-06-06 05:10:00,
2013-06-05 22:15:00,56.8,51.0,29.94,SSE,159,8.1,8.1,81,0.00,CLR,,0.00,WeatherDisplay:10.37,2013-06-06 05:15:00,
2013-06-05 22:20:00,56.7,51.3,29.94,SE,146,5.0,5.0,82,0.00,CLR,,0.00,WeatherDisplay:10.37,2013-06-06 05:20:00,
2013-06-05 22:25:00,56.5,51.1,29.94,South,176,5.8,5.8,82,0.00,CLR,,0.00,WeatherDisplay:10.37,2013-06-06 05:25:00,
2013-06-05 22:30:00,56.4,51.3,29.94,SSE,148,4.6,4.6,83,0.00,CLR,,0.00,WeatherDisplay:10.37,2013-06-06 05:30:00,
2013-06-05 22:35:00,56.2,51.1,29.94,SSE,149,6.9,6.9,83,0.00,CLR,,0.00,WeatherDisplay:10.37,2013-06-06 05:35:00,
2013-06-05 22:40:00,56.1,51.0,29.94,SSW,208,4.6,4.6,83,0.00,CLR,,0.00,WeatherDisplay:10.37,2013-06-06 05:40:00,
2013-06-05 22:45:00,55.9,50.8,29.94,SW,221,5.8,5.8,83,0.00,CLR,,0.00,WeatherDisplay:10.37,2013-06-06 05:45:00,
2013-06-05 22:50:00,55.8,51.0,29.94,South,174,3.5,3.5,84,0.00,CLR,,0.00,WeatherDisplay:10.37,2013-06-06 05:50:00,
2013-06-05 22:55:00,55.7,50.9,29.95,South,169,3.5,3.5,84,0.00,CLR,,0.00,WeatherDisplay:10.37,2013-06-06 05:55:00,
2013-06-05 23:00:00,55.5,50.7,29.95,SSE,166,3.5,3.5,84,0.00,CLR,,0.00,WeatherDisplay:10.37,2013-06-06 06:00:00,
2013-06-05 23:05:00,55.4,51.0,29.94,South,181,4.6,4.6,85,0.00,CLR,,0.00,WeatherDisplay:10.37,2013-06-06 06:05:00,
2013-06-05 23:10:00,55.3,50.9,29.95,SSE,147,3.5,3.5,85,0.00,CLR,,0.00,WeatherDisplay:10.37,2013-06-06 06:10:00,
2013-06-05 23:15:00,55.1,50.7,29.95,SSE,160,3.5,3.5,85,0.00,CLR,,0.00,WeatherDisplay:10.37,2013-06-06 06:15:00,
2013-06-05 23:20:00,55.0,50.6,29.95,SSW,197,3.5,3.5,85,0.00,CLR,,0.00,WeatherDisplay:10.37,2013-06-06 06:20:00,
2013-06-05 23:25:00,54.9,50.8,29.95,South,169,4.6,4.6,86,0.00,CLR,,0.00,WeatherDisplay:10.37,2013-06-06 06:25:00,
2013-06-05 23:30:00,54.8,50.7,29.95,SSW,205,3.5,3.5,86,0.00,CLR,,0.00,WeatherDisplay:10.37,2013-06-06 06:30:00,
2013-06-05 23:35:00,54.7,50.6,29.95,SSE,162,4.0,4.0,86,0.00,CLR,,0.00,WeatherDisplay:10.37,2013-06-06 06:35:00,
2013-06-05 23:40:00,54.6,50.8,29.95,South,173,3.5,3.5,87,0.00,CLR,,0.00,WeatherDisplay:10.37,2013-06-06 06:40:00,
2013-06-05 23:45:00,54.6,50.8,29.94,SSW,203,2.3,2.3,87,0.00,CLR,,0.00,WeatherDisplay:10.37,2013-06-06 06:45:00,
2013-06-05 23:50:00,54.6,50.8,29.95,SW,225,2.3,2.3,87,0.00,CLR,,0.00,WeatherDisplay:10.37,2013-06-06 06:50:00,
2013-06-05 23:55:00,54.5,50.7,29.95,SW,214,2.3,2.3,87,0.00,CLR,,0.00,WeatherDisplay:10.37,2013-06-06 06:55:00,